STARLINK-30074 (57508 NORAD) Tracking and Keplerian Element Data

This shows tracking and keplerian element data for the satellite.

Feedback or suggestion? Click here.




ElementValue
Catalog57508
NameSTARLINK-30074
Epoch Orbit2513
Epoch Day13.13162033
Epoch Year2024
RAAN331.0721
Inclination43.0031
Eccentricity0.000116
Argument of Perigee248.7895
Mean Anonmoly111.2823
Mean Motion15.02543819
Decay Rate0.0001215
L11 57508U 23113P 24013.13162033 .00012150 00000+0 91274-3 0 9998
L22 57508 43.0031 331.0721 0001160 248.7895 111.2823 15.02543819 25133



Live tracking and technical data element details for STARLINK-30074 (NORAD 57508). STARLINK-30074 can be tracked NOW for your location showing map with azimuth and elevation plus other details from your city location.







IsCatalogInMostPopularTable: catalog: 57508, numindb: 24
Update: records affected: 1



GetName: 57508 STARLINK-30074

Hit Count: updated at: Thu, 29 Feb 2024 12:43:23 GMT